Regional Weather Roundup
Issued by NWS Kansas City/Pleasant Hill, MO

Home | Current Version | Previous Version | Graphics & Text | Print | Product List | Glossary Off
Versions: 1 2 3 4 5 6 7 8 9 10 11 12 13 14 15 16 17 18 19 20 21 22 23 24 25 26 27 28 29 30 31 32 33 34 35 36 37 38 39 40 41 42 43 44 45 46 47 48 49 50

000
ASUS43 KEAX 210804
RWREAX

WEATHER ROUNDUP FOR EASTERN KANSAS AND NORTHWEST MISSOURI
NATIONAL WEATHER SERVICE KANSAS CITY/PLEASANT HILL MO
200 AM CST SUN DEC 21 2014

KSZ040-057-103>105-MOZ028-029-037-043-210900-
...KANSAS CITY METROPOLITAN AREA...

CITY           SKY/WX    TMP DP  RH WIND       PRES   REMARKS
K.C. INTL      PTCLDY    35  33  92 S12       30.08F WCI  27
K.C. DOWNTOWN  CLEAR     36  32  85 S8        30.10S WCI  30
LEES SUMMIT    CLEAR     35  32  88 S8        30.10F WCI  29
OLATHE - IXD   CLEAR     33  32  96 S8        30.09S WCI  26
OLATHE - OJC   CLEAR     35  33  92 S9        30.08F WCI  28
LAWRENCE       CLEAR     34  31  88 S7        30.09S WCI  28

$$

MOZ001>008-011>017-020>025-030>033-038>040-044>046-053-054-210900-
...NORTHERN AND CENTRAL MISSOURI...

CITY           SKY/WX    TMP DP  RH WIND       PRES   REMARKS
ST. JOSEPH     PTCLDY    33  31  92 S7        30.09S WCI  27
MOSBY          MOSUNNY   36  32  87 S5        30.11F WCI  32
WARRENSBURG    CLOUDY    39  34  81 S5        30.12S
WHITEMAN AFB   CLOUDY    41  36  83 SW9       30.12F WCI  35
CLINTON        CLOUDY    43  37  81 S8        30.14F
SEDALIA        CLOUDY    42  35  76 S9        30.13F
WARSAW         NOT AVBL
MARSHALL       CLOUDY    43  37  81 S6        30.14F
CHILLICOTHE      N/A     38  34  85 S6        30.13F WCI  33
MOBERLY        CLOUDY    39  34  81 S3        30.16F
KIRKSVILLE     CLOUDY    38  35  89 S7        30.14F WCI  33

$$

MOZ041-047>049-056>058-063>065-088>090-097-210900-
...EASTERN AND SOUTHERN MISSOURI...

CITY           SKY/WX    TMP DP  RH WIND       PRES   REMARKS
ST. LOUIS INTL CLOUDY    42  32  67 SE7       30.23S
SPIRIT OF STL  CLOUDY    41  33  73 CALM      30.22S
COLUMBIA       CLOUDY    40  35  83 S7        30.16F
JEFFERSON CITY CLOUDY    42  35  76 SE3       30.18F
MEXICO         CLOUDY    41  39  93 S8        30.18S
HANNIBAL       CLOUDY    39  34  81 S5        30.18S
ROLLA          CLOUDY    39  34  82 S6        30.17S WCI  35
LEBANON        CLOUDY    41  36  81 S5        30.16F
OSAGE BEACH    CLOUDY    41  34  75 S6        30.16F
SPRINGFIELD    CLOUDY    41  36  82 S5        30.15F
NEVADA         CLOUDY    41  36  81 S9        30.13F
JOPLIN         CLOUDY    43  38  82 S8        30.14F
WEST PLAINS    CLOUDY    39  34  82 SE7       30.20S WCI  34

$$

IAZ060-094-KSZ022-034>040-054-083-096-NEZ052-066-093-210900-
...KANSAS...SOUTHEAST NEBRASKA AND IOWA...

CITY           SKY/WX    TMP DP  RH WIND       PRES   REMARKS
TOPEKA         CLOUDY   N/A N/A N/A S6        30.09R
MANHATTAN      CLOUDY    42  38  85 SW13      30.03F
EMPORIA        CLOUDY    36  34  92 S10       30.06F WCI  28
CHANUTE        CLOUDY    39  36  89 S10       30.11F WCI  32
WICHITA        CLOUDY    42  37  82 S16       30.05S WCI  34
OMAHA          CLOUDY    37  35  92 S13       29.99F FOG     WCI  29
LINCOLN        CLOUDY    34  33  96 S7        29.97F FOG     WCI  28
FALLS CITY     MOCLDY    34  32  92 S7        30.04S WCI  28
LAMONI         CLOUDY    37  35  92 S15       30.08R WCI  28
DES MOINES     CLOUDY    39  36  89 S12       30.06F FOG     WCI  32

$$




USA.gov is the U.S. government's official web portal to all federal, state and local government web resources and services.